[[{"header":{"parameterUnit":"m.s-1","parameterCategory":1,"la1":30.2991,"la2":30.254,"lo1":-89.0895,"lo2":-89.0444,"dy":0.0017,"dx":0.0017,"nx":28,"ny":28,"refTime":"2024-07-19T03:00:00:Z","depth":0,"parameterNumber":2,"parameterNumberName":"U-component_of_WINDS"},"data":[0,0,0,0,0,0,0,0,0,0,0,0,0,0,0,0,0,0,0,0,0,0,0,0,0,0,0,0,0,0,0,0,0,0,0,0,0,0,0,0,0,0,0,0,0,0,0,0,0,0,0,0,0,0,0,0,0,0,-2.1545,-2.1546,0,-2.164,-2.1641,-2.1642,-2.1651,-2.165,-2.1649,-2.1648,-2.1745,-2.1748,-2.1752,0,0,0,0,0,0,0,0,0,0,0,0,0,-2.1372,-2.1375,-2.1545,-2.1546,-2.1548,-2.164,-2.1641,-2.1642,-2.1651,-2.165,-2.1648,-2.1647,-2.1744,-2.1748,-2.1752,0,0,0,0,0,0,0,0,0,0,0,0,0,-2.1455,-2.1376,-2.1545,-2.1563,-2.1565,-2.1639,-2.1641,-2.1643,-2.1651,-2.165,-2.1648,-2.1647,-2.1742,-2.1747,-2.1752,-2.1815,0,0,-2.1769,-2.1771,0,0,0,0,0,0,0,0,-2.145,-2.1461,-2.1559,-2.1562,-2.1565,-2.1632,-2.1615,-2.17,-2.1651,-2.1619,-2.1648,-2.1646,-2.1708,-2.1716,-2.1737,-2.182,-2.1824,-2.1769,-2.1772,-2.1775,-2.1776,0,0,0,0,0,0,0,-2.1444,-2.1457,-2.1583,-2.1561,-2.1564,-2.1566,-2.1576,-2.1632,-2.1671,-2.1621,-2.1622,-2.1633,-2.171,-2.1732,-2.174,-2.1825,-2.1769,-2.1774,-2.1777,-2.1779,-2.1963,-2.1965,0,0,0,0,0,0,-2.1435,-2.1452,-2.158,-2.1586,-2.1503,-2.1571,-2.1582,-2.1612,-2.167,-2.1678,-2.1634,-2.1633,-2.1724,-2.1734,-2.1743,-2.182,-2.1774,-2.1779,-2.1782,-2.1962,-2.1964,-2.1966,0,0,0,0,0,0,-2.1431,-2.1446,-2.1576,-2.1519,-2.1536,-2.1575,-2.1609,-2.1615,-2.1637,-2.168,-2.1687,-2.165,-2.1723,-2.1736,-2.1797,-2.1824,-2.1782,-2.1787,-2.196,-2.1962,-2.1965,-2.1975,0,0,0,0,0,0,-2.1426,-2.1445,-2.1469,-2.152,-2.1539,-2.1628,-2.161,-2.1617,-2.1646,-2.1646,-2.1697,-2.1704,-2.1723,-2.1789,-2.1802,-2.183,-2.1791,-2.1957,-2.1961,-2.1964,-2.1972,-2.1977,-2.1982,0,0,0,0,0,-2.142,-2.1468,-2.1471,-2.1486,-2.157,-2.163,-2.1641,-2.1662,-2.1648,-2.1673,-2.1701,-2.1702,-2.1819,-2.1795,-2.181,-2.184,-2.1956,-2.196,-2.1964,-2.197,-2.1976,-2.1982,0,0,0,0,0,0,-2.142,-2.1475,-2.1478,-2.1544,-2.1582,-2.1631,-2.1663,-2.1668,-2.171,-2.1708,-2.1732,-2.1744,-2.1804,-2.1828,-2.1801,-2.1904,-2.1886,-2.1893,-2.1886,-2.1892,-2.1897,-2.189,-2.1795,0,0,0,0,0,-2.1428,-2.1472,-2.1518,-2.1572,-2.159,-2.1623,-2.165,-2.1663,-2.1703,-2.1719,-2.1751,-2.1791,-2.1836,-2.1865,-2.1909,-2.1976,-2.1987,-2.2004,-2.2008,-2.2012,-2.2018,-2.2055,-2.2062,-2.1978,-2.1978,-2.1978,0,0,-2.1444,-2.148,-2.1506,-2.1573,-2.1603,-2.1648,-2.1637,-2.1685,-2.1719,-2.1727,-2.1787,-2.1811,-2.1857,-2.1921,-2.195,-2.1943,-2.2044,-2.2017,-2.202,-2.2024,-2.2059,-2.2067,-2.2074,-2.1981,-2.1981,-2.198,0,0,-2.1497,-2.1529,-2.1577,-2.1608,-2.1655,-2.1676,-2.1688,-2.1736,-2.1753,-2.1813,-2.182,-2.1861,-2.1938,-2.197,-2.1996,-2.2061,-2.2064,-2.2075,-2.21,-2.2135,-2.2142,-2.2148,-2.2171,-2.2179,-2.208,-2.208,-2.208,0,-2.1512,-2.158,-2.1601,-2.1649,-2.1678,-2.1687,-2.1736,-2.1765,-2.1824,-2.1844,-2.1834,-2.1932,-2.1963,-2.2034,-2.205,-2.2071,-2.2085,-2.2069,-2.2139,-2.2145,-2.2151,-2.2173,-2.2182,-2.2081,-2.2081,-2.2081,-2.2081,0,-2.1595,-2.1642,-2.1676,-2.1732,-2.1765,-2.1813,-2.1841,-2.1872,-2.1881,-2.1904,-2.1965,-2.2003,-2.2054,-2.2072,-2.2083,-2.2145,-2.2139,-2.2134,-2.2117,-2.216,-2.2181,-2.219,-2.2083,-2.2082,-2.2082,-2.2082,0,0,-2.1651,-2.1718,-2.173,-2.1756,-2.1808,-2.1845,-2.1894,-2.1944,-2.197,-2.201,-2.2051,-2.2116,-2.2112,-2.2142,-2.2156,-2.2187,-2.2235,-2.2178,-2.2179,-2.2187,-2.2307,-2.231,-2.232,-2.2238,-2.2239,-2.2241,-2.2303,0,-2.171,-2.1796,-2.1817,-2.1891,-2.1935,-2.1944,-2.1986,-2.2023,-2.2045,-2.2085,-2.211,-2.2156,-2.2146,-2.2164,-2.2195,-2.2223,-2.226,-2.2219,-2.2276,-2.2278,-2.2265,-2.2331,-2.2335,-2.2392,-2.2311,-2.2313,-2.2314,0,-2.179,-2.1832,-2.191,-2.1957,-2.1976,-2.2013,-2.2061,-2.21,-2.2141,-2.2155,-2.2188,-2.2199,-2.225,-2.2229,-2.23,-2.2271,-2.2296,-2.2313,-2.2316,-2.2322,-2.2299,-2.2339,-2.241,-2.2419,-2.2327,-2.2326,-2.2325,0,-2.1823,-2.1899,-2.1955,-2.1977,-2.2033,-2.2059,-2.2083,-2.2123,-2.2152,-2.2194,-2.2213,-2.226,-2.2286,-2.2322,-2.2345,-2.2328,-2.2414,-2.2395,-2.2426,-2.2426,-2.2444,-2.2443,-2.252,-2.246,-2.246,-2.246,-2.2459,0,-2.1886,-2.1934,-2.1971,-2.2006,-2.2059,-2.2082,-2.2135,-2.2159,-2.2195,-2.2234,-2.2245,-2.2282,-2.231,-2.2351,-2.237,-2.2425,-2.2437,-2.2449,-2.2453,-2.2448,-2.2447,-2.2465,-2.2462,-2.2462,-2.2461,-2.2461,-2.2461,0,-2.1932,-2.1959,-2.2021,-2.2068,-2.2081,-2.2119,-2.2159,-2.2194,-2.2216,-2.2266,-2.2279,-2.2314,-2.2363,-2.2389,-2.245,-2.2463,-2.2524,-2.2527,-2.251,-2.2512,-2.2542,-2.2539,-2.2634,-2.2648,-2.2578,-2.2579,-2.2579,0,-2.1971,-2.2007,-2.2059,-2.2086,-2.2111,-2.2155,-2.2184,-2.2208,-2.2238,-2.2288,-2.2317,-2.2366,-2.2407,-2.2484,-2.2515,-2.2562,-2.2565,-2.2595,-2.2572,-2.2566,-2.2565,-2.2563,-2.2567,-2.2599,-2.26,-2.26,-2.2601,0,-2.2036,-2.2048,-2.209,-2.2137,-2.2172,-2.221,-2.2248,-2.2269,-2.2299,-2.2333,-2.2383,-2.2414,-2.2476,-2.2525,-2.2574,-2.2599,-2.2605,-2.2608,-2.2618,-2.2613,-2.2602,-2.2608,-2.2521,-2.2606,-2.2605,-2.2605,-2.2605,-2.2604,-2.208,-2.2113,-2.2154,-2.2201,-2.2232,-2.2266,-2.2301,-2.2327,-2.2369,-2.2422,-2.2433,-2.2486,-2.2526,-2.2593,-2.2619,-2.2661,-2.2655,-2.2669,-2.2672,-2.2675,-2.2677,-2.2595,-2.267,-2.267,-2.2669,-2.2669,-2.2669,0,-2.2146,-2.2173,-2.2216,-2.2268,-2.2305,-2.2307,-2.2348,-2.2379,-2.2425,-2.2462,-2.2502,-2.2559,-2.2606,-2.2641,-2.2689,-2.2716,-2.272,-2.2728,-2.2726,-2.2732,-2.2679,-2.2666,-2.2724,-2.2724,-2.2724,-2.2724,-2.2724,-2.2724,-2.2185,-2.2241,-2.2257,-2.2329,-2.2355,-2.2407,-2.243,-2.2463,-2.2492,-2.2556,-2.2595,-2.2617,-2.2653,-2.2704,-2.2748,-2.2757,-2.2774,-2.2782,-2.2791,-2.2741,-2.2735,-2.273,-2.2717,-2.2785,-2.2785,-2.284,-2.284,-2.2841]},{"header":{"parameterUnit":"m.s-1","parameterCategory":1,"la1":30.2991,"la2":30.254,"lo1":-89.0895,"lo2":-89.0444,"dy":0.0017,"dx":0.0017,"nx":28,"ny":28,"refTime":"2024-07-19T03:00:00:Z","depth":0,"parameterNumber":3,"parameterNumberName":"V-component_of_WINDS"},"data":[0,0,0,0,0,0,0,0,0,0,0,0,0,0,0,0,0,0,0,0,0,0,0,0,0,0,0,0,0,0,0,0,0,0,0,0,0,0,0,0,0,0,0,0,0,0,0,0,0,0,0,0,0,0,0,0,0,0,1.0436,1.0435,0,1.0291,1.0289,1.0287,1.0245,1.0246,1.0247,1.0247,1.0089,1.0085,1.008,0,0,0,0,0,0,0,0,0,0,0,0,0,1.0672,1.0668,1.0436,1.0435,1.0433,1.0291,1.0289,1.0287,1.0245,1.0246,1.0247,1.0248,1.0091,1.0085,1.0079,0,0,0,0,0,0,0,0,0,0,0,0,0,1.0552,1.0666,1.0437,1.0395,1.039,1.0291,1.0289,1.0286,1.0245,1.0246,1.0247,1.0248,1.0093,1.0086,1.0079,1.0009,0,0,1.0056,1.0053,0,0,0,0,0,0,0,0,1.0559,1.0543,1.0403,1.0398,1.0392,1.0287,1.0314,1.0193,1.0244,1.0299,1.0247,1.0249,1.0154,1.0141,1.0111,1.0001,0.9994,1.0055,1.0051,1.0047,1.0045,0,0,0,0,0,0,0,1.0567,1.0549,1.0378,1.0401,1.0394,1.0381,1.0366,1.0291,1.0221,1.0295,1.0291,1.0275,1.0151,1.0118,1.0107,0.9992,1.0055,1.0049,1.0044,1.0041,0.9818,0.9817,0,0,0,0,0,0,1.0584,1.0557,1.0383,1.0374,1.048,1.0376,1.0359,1.0319,1.0222,1.0209,1.0274,1.0274,1.0131,1.0116,1.0101,1.0013,1.0048,1.0041,1.0036,0.9819,0.9818,0.9816,0,0,0,0,0,0,1.0589,1.0569,1.0389,1.0464,1.0441,1.0371,1.0327,1.0316,1.0284,1.0207,1.0193,1.0254,1.0131,1.0112,1.0033,1.0007,1.0037,1.003,0.9821,0.9819,0.9817,0.9837,0,0,0,0,0,0,1.0596,1.0571,1.0545,1.0464,1.0437,1.0325,1.0326,1.0312,1.0272,1.027,1.0185,1.0171,1.013,1.0044,1.0025,0.9998,1.0025,0.9823,0.982,0.9818,0.9838,0.9836,0.9833,0,0,0,0,0,1.0604,1.0554,1.0544,1.0523,1.0403,1.0323,1.0307,1.0264,1.027,1.0242,1.0194,1.0174,1.0014,1.0036,1.0015,0.9985,0.9824,0.9821,0.9818,0.9839,0.9836,0.9833,0,0,0,0,0,0,1.063,1.0543,1.053,1.0453,1.0396,1.0317,1.028,1.0262,1.02,1.02,1.0146,1.0127,1.0052,1.001,1.0037,0.9912,0.9918,0.9911,0.9942,0.9938,0.9936,0.9947,1.0018,0,0,0,0,0,1.0627,1.0572,1.0498,1.0436,1.0409,1.035,1.0313,1.0285,1.0223,1.0198,1.0143,1.0081,1.0017,0.9976,0.9912,0.9833,0.9813,0.9801,0.9799,0.9797,0.9791,0.9746,0.9739,0.9805,0.9805,0.9805,0,0,1.0619,1.0565,1.0532,1.044,1.0393,1.0335,1.033,1.0268,1.0224,1.0187,1.011,1.0068,0.9996,0.9917,0.9879,0.988,0.9769,0.9793,0.9793,0.9786,0.9742,0.9735,0.973,0.9803,0.9803,0.9804,0,0,1.0576,1.053,1.0474,1.0428,1.0358,1.032,1.0307,1.023,1.0202,1.0124,1.0096,1.0042,0.9932,0.9882,0.9842,0.9784,0.9763,0.9764,0.9751,0.9708,0.9703,0.9698,0.9676,0.9669,0.9758,0.9758,0.9758,0,1.0574,1.0488,1.0447,1.0388,1.0348,1.0316,1.0259,1.0215,1.0127,1.0099,1.0102,0.9966,0.9914,0.9823,0.981,0.9778,0.976,0.9772,0.9707,0.9702,0.9697,0.9675,0.9667,0.9759,0.9759,0.9759,0.9758,0,1.0489,1.043,1.0393,1.0313,1.0269,1.0211,1.0159,1.0119,1.0096,1.0056,0.9978,0.9916,0.984,0.9817,0.9791,0.9722,0.9725,0.9719,0.9723,0.9692,0.9671,0.9662,0.9759,0.9759,0.9759,0.9759,0,0,1.0454,1.0355,1.0342,1.0306,1.0228,1.018,1.012,1.005,1.0016,0.9957,0.9904,0.9814,0.9809,0.9764,0.9733,0.9695,0.9652,0.9693,0.9691,0.9687,0.9571,0.9576,0.9567,0.964,0.9638,0.9636,0.9577,0,1.04,1.0295,1.0258,1.017,1.0115,1.0086,1.0034,0.9979,0.9942,0.9888,0.9845,0.9782,0.978,0.9752,0.9714,0.9666,0.9628,0.967,0.9588,0.9585,0.9606,0.9556,0.956,0.9507,0.9569,0.9567,0.9566,0,1.0322,1.0266,1.0174,1.0105,1.008,1.0035,0.9967,0.9917,0.9854,0.983,0.9781,0.9754,0.9689,0.97,0.9608,0.9638,0.9602,0.9574,0.957,0.9559,0.9573,0.9542,0.9489,0.9481,0.9553,0.9554,0.9555,0,1.0306,1.0207,1.0139,1.0109,1.0027,0.9995,0.9959,0.9898,0.9859,0.9799,0.9773,0.9706,0.9668,0.9616,0.957,0.9583,0.9483,0.949,0.9459,0.946,0.9437,0.9439,0.9376,0.9417,0.9417,0.9417,0.9417,0,1.0248,1.0193,1.0131,1.0089,1.0026,0.9984,0.9922,0.9883,0.983,0.9779,0.9749,0.9701,0.9645,0.9589,0.9553,0.9483,0.9466,0.9443,0.9434,0.9445,0.9448,0.9419,0.9421,0.9415,0.9416,0.9416,0.9416,0,1.0217,1.0174,1.0099,1.0029,1.001,0.9966,0.9905,0.9862,0.9825,0.9761,0.9743,0.9683,0.9617,0.9567,0.948,0.9455,0.938,0.9371,0.9402,0.9397,0.9368,0.9371,0.9283,0.9269,0.9322,0.9321,0.9321,0,1.0183,1.014,1.0067,1.0032,0.9997,0.9941,0.9902,0.9858,0.9818,0.9745,0.9711,0.9644,0.9587,0.9481,0.9428,0.9361,0.935,0.9324,0.9339,0.9352,0.9348,0.935,0.9346,0.9321,0.932,0.932,0.932,0,1.0126,1.0107,1.0053,0.9992,0.9947,0.9895,0.9843,0.9816,0.9763,0.9719,0.9653,0.9609,0.9522,0.9454,0.9383,0.9343,0.9322,0.9316,0.9305,0.9315,0.9334,0.9323,0.9395,0.9318,0.9318,0.9318,0.9318,0.9318,1.0091,1.0052,0.9995,0.9936,0.9894,0.9846,0.9804,0.9763,0.9707,0.9635,0.9613,0.9544,0.9483,0.9386,0.9345,0.9289,0.9289,0.9273,0.9269,0.9265,0.9266,0.9346,0.9276,0.9276,0.9276,0.9276,0.9276,0,1.0031,0.9995,0.9941,0.9871,0.9825,0.9813,0.9756,0.9717,0.9657,0.9604,0.9551,0.9474,0.9409,0.9353,0.9285,0.9251,0.9239,0.9234,0.9235,0.9226,0.927,0.9286,0.9245,0.9245,0.9245,0.9245,0.9245,0.9245,0.9995,0.9929,0.9904,0.9817,0.9779,0.9714,0.9682,0.9638,0.9596,0.9513,0.946,0.9425,0.937,0.9299,0.9238,0.9223,0.9199,0.9196,0.9178,0.9219,0.9223,0.9226,0.9241,0.9191,0.9191,0.9139,0.9138,0.9138]}]]